Portland Troutdale, OR

12:02 AM PDT on June 24, 2017 (GMT -0700)
Portland-Troutdale

Weather History for KTTD - February, 2014

Change the Weather History Date:

Thursday, February 13, 2014

  Actual Average Record
Temperature  
Mean Temperature 51 °F 42 °F  
Max Temperature 56 °F 49 °F 61 °F (2015)
Min Temperature 45 °F 35 °F 22 °F (1949)
Degree Days  
Heating Degree Days 14 23  
Month to date heating degree days 367 301  
Cooling Degree Days 0 0  
Month to date cooling degree days 0 0  
Moisture  
Dew Point 42 °F    
Average Humidity 67    
Maximum Humidity 83    
Minimum Humidity 51    
Precipitation  
Precipitation 0.09 in 0.19 in 1.52 in (1991)
Month to date precipitation 0.64 2.47  
Year to date precipitation 3.50 8.65  
Sea Level Pressure  
Sea Level Pressure 30.02 in    
Wind  
Wind Speed 11 mph (South)    
Max Wind Speed 20 mph    
Max Gust Speed 25 mph    
Visibility 10 miles    
Events Rain    
T = Trace of Precipitation, MM = Missing Value Source: NWS Daily Summary

Daily Weather History Graph

Daily Weather History Graph

Search for Another Location

Airport or City:

Trip Planner

Search our weather history database for the weather conditions in past years. The results will help you decide how hot, cold, wet, or windy it might be!

Date:

Astronomy

Feb. 13, 2014 Rise Set
Actual Time 7:14 AM PST 5:33 PM PST
Civil Twilight 6:43 AM PST 6:04 PM PST
Nautical Twilight 6:08 AM PST 6:39 PM PST
Astronomical Twilight 5:34 AM PST 7:13 PM PST
Moon 4:47 PM PST (2/13) 6:11 AM PST (2/13)
Length of Visible Light 11h 20m
Length of Day
10h 19m
Waxing Gibbous, 99% of the Moon is Illuminated
Feb 13
Waxing Gibbous
Feb 14
Full
Feb 22
Last Quarter
Mar 1
New
Mar 8
First Quarter

Hourly Weather History & Observations

Time (PST) Temp. Windchill Dew Point Humidity Pressure Visibility Wind Dir Wind Speed Gust Speed Precip Events Conditions
12:53 AM 53.1 °F - 48.9 °F 86% 29.90 in 10.0 mi SW 11.5 mph - 0.00 in   Scattered Clouds
1:53 AM 51.1 °F - 46.0 °F 83% 29.94 in 10.0 mi WSW 10.4 mph - N/A   Partly Cloudy
2:53 AM 51.1 °F - 45.0 °F 80% 29.95 in 10.0 mi SW 12.7 mph - N/A   Overcast
3:53 AM 51.1 °F - 45.0 °F 80% 29.96 in 10.0 mi SW 13.8 mph - N/A   Overcast
4:53 AM 51.1 °F - 43.0 °F 74% 30.00 in 10.0 mi SW 13.8 mph - N/A   Partly Cloudy
5:53 AM 48.0 °F - 43.0 °F 83% 30.04 in 10.0 mi Calm Calm - N/A   Scattered Clouds
6:53 AM 48.0 °F - 42.1 °F 80% 30.05 in 10.0 mi SSW 6.9 mph - N/A   Mostly Cloudy
7:53 AM 48.0 °F - 42.1 °F 80% 30.09 in 10.0 mi SSW 5.8 mph - N/A   Clear
8:53 AM 50.0 °F - 42.1 °F 74% 30.12 in 10.0 mi SW 11.5 mph - N/A   Mostly Cloudy
9:53 AM 52.0 °F - 43.0 °F 71% 30.14 in 10.0 mi SSW 10.4 mph - N/A   Clear
10:53 AM 54.0 °F - 43.0 °F 66% 30.16 in 10.0 mi SSW 11.5 mph - N/A   Clear
11:53 AM 55.9 °F - 41.0 °F 57% 30.16 in 10.0 mi WSW 9.2 mph - N/A   Scattered Clouds
12:53 PM 55.9 °F - 39.9 °F 55% 30.14 in 10.0 mi SW 9.2 mph - N/A   Scattered Clouds
1:53 PM 55.9 °F - 37.9 °F 51% 30.12 in 10.0 mi SSW 9.2 mph - N/A   Clear
2:53 PM 55.9 °F - 39.0 °F 53% 30.10 in 10.0 mi WSW 6.9 mph - N/A   Partly Cloudy
3:53 PM 55.9 °F - 39.0 °F 53% 30.08 in 10.0 mi SSW 8.1 mph - N/A   Clear
4:53 PM 52.0 °F - 41.0 °F 66% 30.05 in 10.0 mi East 6.9 mph - N/A   Clear
5:53 PM 48.9 °F - 41.0 °F 74% 30.01 in 10.0 mi East 6.9 mph - N/A   Clear
6:53 PM 48.9 °F - 39.9 °F 71% 30.00 in 10.0 mi East 13.8 mph - N/A   Clear
7:53 PM 48.0 °F - 39.9 °F 74% 29.96 in 10.0 mi East 18.4 mph - N/A   Clear
8:53 PM 48.0 °F - 39.0 °F 71% 29.94 in 10.0 mi East 11.5 mph - N/A   Clear
9:53 PM 48.0 °F - 37.9 °F 68% 29.88 in 10.0 mi East 17.3 mph - N/A   Overcast
10:53 PM 46.0 °F 39.9 °F 39.0 °F 76% 29.86 in 10.0 mi East 13.8 mph - 0.00 in Rain Light Rain
11:53 PM 45.0 °F 38.9 °F 39.9 °F 82% 29.83 in 6.0 mi East 12.7 mph - 0.08 in Rain Rain